Regional Weather Roundup
Issued by NWS

Home | Current Version | Previous Version | Graphics & Text | Print | Product List | Glossary Off
Versions: 1 2 3 4 5 6 7 8 9 10 11 12 13 14 15 16 17 18 19 20 21 22 23 24 25 26 27 28 29 30 31 32 33 34 35 36 37 38 39 40 41 42 43 44 45 46 47 48 49 50

000
ASUS43 KDMX 301407
RWRIA

WEATHER ROUNDUP FOR IOWA
NATIONAL WEATHER SERVICE DES MOINES IA
800 AM CST FRI JAN 30 2015

NOTE: "FAIR" INDICATES FEW OR NO CLOUDS BELOW 12,000 FEET WITH NO
SIGNIFICANT WEATHER AND/OR OBSTRUCTIONS TO VISIBILITY.

* - THESE STATIONS ARE NOT NWS STATIONS...THUS NOT UNDER NWS
QUALITY CONTROL.  THEY ALSO DO NOT REPORT WEATHER SUCH
AS PRECIPITATION OR FOG.

IAZ001>003-012>014-020>022-031>034-043>046-301500-
   NORTHWEST IOWA

CITY           SKY/WX    TMP DP  RH WIND       PRES   REMARKS
CARROLL *      CLEAR     12  10  92 S3        30.52R
CHEROKEE *     CLEAR     14  12  92 CALM      30.52R
DENISON *      CLEAR     16  14  93 CALM      30.50S
LE MARS *      CLOUDY    18  16  93 CALM      30.52R
ORANGE CITY *  MOCLDY    19  16  86 CALM      30.49R
SHELDON *      MOCLDY    16  14  93 S7        30.47F WCI   6
SIOUX CITY     CLEAR     18  14  84 SE5       30.52R WCI  11
SPENCER        CLEAR     13   9  84 SE3       30.49F
STORM LAKE *   CLEAR     12  10  92 SE3       30.50R
$$

IAZ055>058-069>071-079>083-090>094-301500-
   SOUTHWEST IOWA

CITY           SKY/WX    TMP DP  RH WIND       PRES   REMARKS
ATLANTIC *     CLEAR     12  10  92 CALM      30.53R
AUDUBON *      CLEAR     10   9  92 CALM      30.51S
CLARINDA *     CLEAR     12  10  92 CALM      30.56S
COUNCIL BLFS * CLEAR     18  16  93 SE6       30.50S WCI   9
CRESTON *      CLEAR     12  12 100 E5        30.52S WCI   4
HARLAN  *      CLEAR     16  16 100 CALM      30.55S
LAMONI         CLEAR     16  13  88 NE6       30.53R WCI   7
RED OAK *      CLEAR     14  12  92 CALM      30.54S
SHENANDOAH *   CLEAR     14  12  92 CALM      30.55S
$$

IAZ047>049-059>061-072>074-084-301500-
   CENTRAL IOWA

CITY           SKY/WX    TMP DP  RH WIND       PRES   REMARKS
AMES           CLEAR     15  12  88 CALM      30.53F
ANKENY *       CLEAR     14  12  92 CALM      30.55S
CHARITON *     CLEAR     16  12  86 CALM      30.54R
DES MOINES     CLEAR     19  12  74 VRB3      30.54F
GRINNELL*      CLEAR     14  12  92 NW5       30.54R WCI   6
KNOXVILLE *    CLEAR     18  12  79 N6        30.52F WCI   9
MARSHALLTOWN   CLEAR     15   9  76 CALM      30.53R
PELLA *        CLEAR     16  12  86 N3        30.56S
PERRY *          N/A     14  12  92 CALM      30.54R
$$

IAZ004>006-015-016-023>025-035-036-301500-
   NORTH CENTRAL IOWA

CITY           SKY/WX    TMP DP  RH WIND       PRES   REMARKS
ALGONA *       CLEAR     14  10  85 SW3       30.52S
CLARION *      CLEAR     14  12  92 CALM      30.53R
ESTHERVILLE    CLEAR     12   9  87 S6        30.49S WCI   3
FORT DODGE *   CLEAR     12  10  92 CALM      30.52F
MASON CITY     CLEAR     10   7  87 CALM      30.53R
FOREST CITY *  CLEAR     12   9  85 CALM      30.51S
IOWA FALLS *     N/A     16  12  86 CALM      30.53S
$$

IAZ007>011-017>019-026>030-037>042-050>054-066-301500-
   NORTHEAST IOWA

CITY           SKY/WX    TMP DP  RH WIND       PRES   REMARKS
CEDAR RAPIDS     N/A     15  10  80 NW6       30.53R WCI   6
CHARLES CITY * CLEAR     12   7  79 NE3       30.52S
CLINTON *      CLEAR     16   9  73 N6        30.55R WCI   7
DECORAH *      CLEAR     10   5  79 N3        30.50S
DUBUQUE        CLEAR     14   7  73 CALM      30.51R
MONTICELLO *   CLEAR     14  10  85 N6        30.53S WCI   5
OELWEIN *      CLEAR     12   7  79 N5        30.53R WCI   4
WATERLOO       CLEAR     13   7  77 N3        30.54R
$$

IAZ064-065-067-068-078-301500-
   EAST CENTRAL IOWA

CITY           SKY/WX    TMP DP  RH WIND       PRES   REMARKS
DAVENPORT      CLEAR     15   9  76 NW5       30.54R WCI   8
IOWA CITY      CLEAR     18  11  74 NW7       30.56R WCI   9
MT. PLEASANT * CLEAR     19  14  79 NW6       30.55S WCI  11
MUSCATINE *    CLEAR     19  14  79 N5        30.56S WCI  13
QUAD CITIES    CLEAR     20  11  68 N3        30.54R
$$

IAZ062-063-075>077-085>089-095>099-301500-
   SOUTHEAST IOWA

CITY           SKY/WX    TMP DP  RH WIND       PRES   REMARKS
BURLINGTON     CLEAR     21  15  78 N7        30.54R WCI  12
FAIRFIELD *    CLEAR     18  14  86 N6        30.55S WCI   9
FORT MADISON * CLEAR     19  18  93 N3        30.55S
KEOKUK *       CLEAR     21  18  86 N6        30.54F WCI  14
OSKALOOSA *      N/A     16  12  86 NW5       30.55S WCI   9
CENTERVILLE *  CLEAR     18  16  93 NE7       30.54S WCI   8
OTTUMWA        CLEAR     15  12  88 NW6       30.54R WCI   6
WASHINGTON *   CLEAR     19  16  86 NW7       30.56R WCI  10
$$

ABBREVIATIONS USED IN REMARKS
   TC - TEMPERATURES IN CELSIUS
  WCI - WIND CHILL INDEX
   HX - HEAT INDEX
  VSB - VISIBILITY
$$



USA.gov is the U.S. government's official web portal to all federal, state and local government web resources and services.